(70226) = 1999 RN50

Discovered at Socorro on 1999-09-07 by LINEAR.

Orbit

Orbit type: Main Belt

Note: WebGL enabled browser required.

epoch2024-03-31.0
epoch JD2460400.5
perihelion date2021-08-27.69045
perihelion JD2459454.19045
argument of perihelion (°)344.39175
ascending node (°)338.60901
inclination (°)9.98555
eccentricity0.2450679
perihelion distance (AU)1.7967958
Tisserand w.r.t. Jupiter3.5
ΔV w.r.t. Earth (km/sec)8.9
semimajor axis (AU)2.3800761
mean anomaly (°)254.01012
mean daily motion (°/day)0.26842180
aphelion distance (AU)2.963
period (years)3.67
P-vector [x]0.80013003
P-vector [y]-0.53010476
P-vector [z]-0.28067933
Q-vector [x]0.59648312
Q-vector [y]0.65384627
Q-vector [z]0.46550290
absolute magnitude15.38
phase slope0.15
uncertainty0
referenceE2024-H18
observations used1222
oppositions20
arc length (days)9544
first opposition used1998
last opposition used2024
residual rms (arc-secs)0.68
perturbers coarse indicatorM-v
perturbers precise indicator003Ek
first observation date used1998-02-28.0
last observation date used2024-04-16.0
computer nameMPCLINUX
JD of orbit computation2456966.894251
perihelion JD uncertainty (days)4.2373E-05
argument of perihelion uncertainty (°)2.7947E-05
ascending node uncertainty (°)2.6042E-05
inclination uncertainty (°)5.7753E-06
eccentricity uncertainty 4.6265E-08
perihelion distance uncertainty (AU)1.0940E-07
Minimum Orbit Intersection Distances (in AU)
for orbit epoch: 2460400.5, reference: E2024-H18
Mercury1.37785
Venus1.06871
Earth0.78694
Mars0.41268
Jupiter2.3763
Saturn6.21999
Uranus15.5034
Neptune27.3225

Observations

1212 total observations over interval: 1998 02 28.18889 – 2024 03 19.465149
These data are available for download (format description).

Date (UT) J2000 RA J2000 Dec Magn Location Ref
1998 02 28.18889 11 14 56.30 +02 56 49.7   809 – European Southern Observatory, La Silla MPS 22262
1998 03 02.15424 11 12 57.93 +03 03 07.1   809 – European Southern Observatory, La Silla MPS 22262
1999 07 14.36009 22 00 13.23 -24 16 35.5 17.8   704 – Lincoln Laboratory ETS, New Mexico MPS 6805
1999 07 14.37248 22 00 12.89 -24 16 33.8 18.8   704 – Lincoln Laboratory ETS, New Mexico MPS 6805
1999 07 14.38490 22 00 12.65 -24 16 31.1 19.0   704 – Lincoln Laboratory ETS, New Mexico MPS 6805
1999 07 14.39735 22 00 12.37 -24 16 28.8 18.8   704 – Lincoln Laboratory ETS, New Mexico MPS 6805
1999 07 14.40973 22 00 12.07 -24 16 26.9 19.0   704 – Lincoln Laboratory ETS, New Mexico MPS 6805
1999 08 13.23521 21 36 16.30 -22 19 20.2 17.2 R 703 – Catalina Sky Survey MPS 6805
1999 08 13.24701 21 36 15.58 -22 19 18.8 16.9 R 703 – Catalina Sky Survey MPS 6805
1999 08 13.25881 21 36 14.67 -22 19 12.4 17.2 R 703 – Catalina Sky Survey MPS 6805
1999 08 13.27064 21 36 13.86 -22 19 08.7 17.0 R 703 – Catalina Sky Survey MPS 6805
1999 08 13.31627 21 36 10.67 -22 18 52.4 16.1 R 699 – Lowell Observatory-LONEOS MPS 6805
1999 08 13.32899 21 36 09.79 -22 18 47.9   699 – Lowell Observatory-LONEOS MPS 6805
1999 08 13.34174 21 36 08.90 -22 18 43.2   699 – Lowell Observatory-LONEOS MPS 6805
1999 09 03.22425 21 16 22.69 -19 43 28.5 16.5 R 699 – Lowell Observatory-LONEOS MPS 6805
1999 09 03.23956 21 16 22.00 -19 43 20.5   699 – Lowell Observatory-LONEOS MPS 6805
1999 09 03.25488 21 16 21.34 -19 43 12.2   699 – Lowell Observatory-LONEOS MPS 6805
1999 09 07.27612 21 13 54.47 -19 07 04.0 17.2   704 – Lincoln Laboratory ETS, New Mexico MPS 6220
1999 09 07.28841 21 13 54.04 -19 06 56.8 17.8   704 – Lincoln Laboratory ETS, New Mexico MPS 6220
1999 09 07.30091 21 13 53.59 -19 06 50.1 18.1   704 – Lincoln Laboratory ETS, New Mexico MPS 6220
1999 09 07.31312 21 13 53.16 -19 06 43.0 17.9   704 – Lincoln Laboratory ETS, New Mexico MPS 6220
1999 09 07.32520 21 13 52.75 -19 06 36.1 17.8   704 – Lincoln Laboratory ETS, New Mexico MPS 6220
1999 09 13.20601 21 11 26.10 -18 11 28.3 17.3 R 699 – Lowell Observatory-LONEOS MPS 6220
1999 09 13.22196 21 11 25.78 -18 11 18.1 18.1   704 – Lincoln Laboratory ETS, New Mexico MPS 6220
1999 09 13.23369 21 11 25.54 -18 11 11.6 18.3   704 – Lincoln Laboratory ETS, New Mexico MPS 6220
1999 09 13.23661 21 11 25.48 -18 11 08.9   699 – Lowell Observatory-LONEOS MPS 6220
1999 09 13.24508 21 11 25.32 -18 11 04.6 18.7   704 – Lincoln Laboratory ETS, New Mexico MPS 6220
1999 09 13.25718 21 11 25.08 -18 10 56.9 18.4   704 – Lincoln Laboratory ETS, New Mexico MPS 6220
1999 09 13.26723 21 11 24.80 -18 10 50.8   699 – Lowell Observatory-LONEOS MPS 6220
1999 09 13.26873 21 11 24.82 -18 10 50.6 18.4   704 – Lincoln Laboratory ETS, New Mexico MPS 6220
1999 09 29.18742 21 11 48.98 -15 33 12.7 18.4   704 – Lincoln Laboratory ETS, New Mexico MPS 6805
1999 09 29.20309 21 11 49.34 -15 33 03.8 18.4   704 – Lincoln Laboratory ETS, New Mexico MPS 6805
1999 09 29.21871 21 11 49.64 -15 32 53.9 18.9   704 – Lincoln Laboratory ETS, New Mexico MPS 6805
1999 09 29.23426 21 11 49.84 -15 32 45.6 18.7   704 – Lincoln Laboratory ETS, New Mexico MPS 6805
1999 09 30.20030 21 12 10.36 -15 22 57.4 18.1   704 – Lincoln Laboratory ETS, New Mexico MPS 6805
1999 09 30.21502 21 12 10.62 -15 22 48.7 18.4   704 – Lincoln Laboratory ETS, New Mexico MPS 6805
1999 09 30.22968 21 12 10.93 -15 22 39.5 18.4   704 – Lincoln Laboratory ETS, New Mexico MPS 6805
1999 09 30.24427 21 12 11.15 -15 22 30.0 18.5   704 – Lincoln Laboratory ETS, New Mexico MPS 6805
1999 09 30.25846 21 12 11.39 -15 22 21.5 18.7   704 – Lincoln Laboratory ETS, New Mexico MPS 6805
1999 10 04.13901 21 13 54.48 -14 42 50.7 17.7 R 703 – Catalina Sky Survey MPS 7343
1999 10 04.14877 21 13 54.74 -14 42 44.5 17.7 R 703 – Catalina Sky Survey MPS 7343
1999 10 04.15897 21 13 55.04 -14 42 37.7 17.9 R 703 – Catalina Sky Survey MPS 7343
1999 10 04.16877 21 13 55.25 -14 42 32.0 17.9 R 703 – Catalina Sky Survey MPS 7343
1999 10 10.11194 21 17 32.37 -13 41 29.1 18.7 R 699 – Lowell Observatory-LONEOS MPS 7806
1999 10 10.14248 21 17 33.56 -13 41 08.6   699 – Lowell Observatory-LONEOS MPS 7806
1999 10 10.17301 21 17 34.80 -13 40 50.2   699 – Lowell Observatory-LONEOS MPS 7806
1999 10 15.08886 21 21 25.19 -12 49 47.4 18.6   704 – Lincoln Laboratory ETS, New Mexico MPS 11963
1999 10 15.10564 21 21 26.03 -12 49 36.7 18.4   704 – Lincoln Laboratory ETS, New Mexico MPS 11963
1999 10 15.12112 21 21 26.74 -12 49 27.1 18.6   704 – Lincoln Laboratory ETS, New Mexico MPS 11963
1999 10 15.13678 21 21 27.51 -12 49 17.2 18.7   704 – Lincoln Laboratory ETS, New Mexico MPS 11963
1999 10 15.15225 21 21 28.28 -12 49 07.3 18.7   704 – Lincoln Laboratory ETS, New Mexico MPS 11963
1999 10 16.09578 21 22 17.49 -12 39 15.9 17.6   704 – Lincoln Laboratory ETS, New Mexico MPS 11963
1999 10 16.11274 21 22 18.35 -12 39 05.5 17.8   704 – Lincoln Laboratory ETS, New Mexico MPS 11963
1999 10 16.12955 21 22 19.21 -12 38 54.9 17.9   704 – Lincoln Laboratory ETS, New Mexico MPS 11963
1999 10 16.14505 21 22 20.01 -12 38 45.2 18.3   704 – Lincoln Laboratory ETS, New Mexico MPS 11963
2000 12 22.40448 08 32 18.29 +29 45 15.1 19.4   704 – Lincoln Laboratory ETS, New Mexico MPS 23638
2000 12 22.42002 08 32 17.53 +29 45 17.8 19.5   704 – Lincoln Laboratory ETS, New Mexico MPS 23638
2000 12 22.43550 08 32 16.74 +29 45 19.8 19.8   704 – Lincoln Laboratory ETS, New Mexico MPS 23638
2002 04 09.25397 12 34 34.70 -14 21 56.1 19.1   704 – Lincoln Laboratory ETS, New Mexico MPS 54402
2002 04 09.27824 12 34 33.07 -14 21 52.3 19.1   704 – Lincoln Laboratory ETS, New Mexico MPS 54402
2002 04 09.29038 12 34 32.17 -14 21 50.0 19.3   704 – Lincoln Laboratory ETS, New Mexico MPS 54403
2002 04 09.30253 12 34 31.46 -14 21 47.1 19.0   704 – Lincoln Laboratory ETS, New Mexico MPS 54403
2002 05 16.17155 12 06 35.69 -11 57 49.2 20.2   644 – Palomar Mountain/NEAT MPS 54315
2002 05 16.19230 12 06 35.29 -11 57 45.3 19.9   644 – Palomar Mountain/NEAT MPS 54315
2002 05 16.21321 12 06 34.88 -11 57 42.1 19.5   644 – Palomar Mountain/NEAT MPS 54315
2003 08 05.38780 02 27 21.45 +20 59 38.8 18.8   704 – Lincoln Laboratory ETS, New Mexico MPS 82602
2003 08 05.39864 02 27 22.30 +20 59 46.4 19.3   704 – Lincoln Laboratory ETS, New Mexico MPS 82602
2003 08 05.40971 02 27 23.16 +20 59 55.0 19.2   704 – Lincoln Laboratory ETS, New Mexico MPS 82602
2003 08 05.42038 02 27 23.83 +21 00 03.4 19.7   704 – Lincoln Laboratory ETS, New Mexico MPS 82602
2003 08 05.43130 02 27 24.70 +21 00 12.3 19.3   704 – Lincoln Laboratory ETS, New Mexico MPS 82602
2003 09 11.31160 02 57 09.67 +28 02 33.3 18.2 R 699 – Lowell Observatory-LONEOS MPS 255550
2003 09 11.32488 02 57 09.80 +28 02 41.4   699 – Lowell Observatory-LONEOS MPS 255550
2003 09 11.33818 02 57 10.08 +28 02 49.9   699 – Lowell Observatory-LONEOS MPS 255550
2003 09 11.35143 02 57 10.20 +28 02 57.7   699 – Lowell Observatory-LONEOS MPS 255550
2003 10 16.50156 02 40 28.02 +31 43 16.0 17.5   644 – Palomar Mountain/NEAT MPS 87266
2003 10 16.51182 02 40 27.33 +31 43 16.9 17.6   644 – Palomar Mountain/NEAT MPS 87266
2003 10 16.52184 02 40 26.66 +31 43 17.8 17.6   644 – Palomar Mountain/NEAT MPS 87266
2003 10 17.45112 02 39 25.28 +31 44 47.8 17.4 R 699 – Lowell Observatory-LONEOS MPS 87619
2003 10 17.46111 02 39 24.61 +31 44 48.3   699 – Lowell Observatory-LONEOS MPS 87619
2003 10 17.47106 02 39 23.88 +31 44 49.0   699 – Lowell Observatory-LONEOS MPS 87619
2003 10 17.48104 02 39 23.23 +31 44 49.3   699 – Lowell Observatory-LONEOS MPS 87619
2003 10 23.31430 02 32 34.22 +31 47 52.2 17.1   704 – Lincoln Laboratory ETS, New Mexico MPS 87619
2003 10 23.32659 02 32 33.27 +31 47 51.4 17.9   704 – Lincoln Laboratory ETS, New Mexico MPS 87619
2003 10 23.33863 02 32 32.38 +31 47 51.0 17.9   704 – Lincoln Laboratory ETS, New Mexico MPS 87619
2003 10 23.35063 02 32 31.47 +31 47 50.5 17.8   704 – Lincoln Laboratory ETS, New Mexico MPS 87619
2003 11 03.25724 02 19 02.48 +31 25 10.6 18.3   704 – Lincoln Laboratory ETS, New Mexico MPS 90821
2003 11 03.26945 02 19 01.56 +31 25 07.9 18.4   704 – Lincoln Laboratory ETS, New Mexico MPS 90821
